Terminal Aerodrome Forecast
Issued by NWS Bismarck, ND

Home | Current Version | Previous Version | Graphics & Text | Print | Product List | Glossary On
Versions: 1 2 3 4 5 6 7 8 9 10 11 12 13 14 15
000
FTUS43 KBIS 161100 AAA
TAFISN
TAF AMD
KISN 161158Z 1612/1712 06005KT P6SM OVC018
     FM161800 13004KT P6SM BKN025
     FM162100 12003KT P6SM SCT035
     FM170000 12003KT P6SM SKC=

USA.gov is the U.S. government's official web portal to all federal, state and local government web resources and services.